Station ILOH1 - 1617760 - Hilo, HI Image indicating link to RSS feed of recent meteorological observations for station ILOH1


Conditions at ILOH1 as of
(2:00 am HAST)
1200 GMT on 07/16/2024:
     

Click on the graph icon in the table below to see a time series plot of the last five days of that observation.

5-day plot - Wind Direction Wind Direction (WDIR): NW ( 320 deg true )
5-day plot - Wind Speed Wind Speed (WSPD): 8.9 kts
5-day plot - Wind Gust Wind Gust (GST): 9.9 kts
5-day plot - Atmospheric Pressure Atmospheric Pressure (PRES):30.03 in
5-day plot - Pressure Tendency Pressure Tendency (PTDY):-0.05 in ( Falling )
5-day plot - Air Temperature Air Temperature (ATMP): 75.4 °F
5-day plot - Water Temperature Water Temperature (WTMP): 80.1 °F
5-day plot - Wind Speed at 10 Meters Wind Speed at 10 meters (WSPD10M): 9.7 kts
5-day plot - Wind Speed at 20 Meters Wind Speed at 20 meters (WSPD20M): 9.7 kts
5-day plot -  Wind Speed, Wind Gust and Atmospheric Pressure Combined plot of Wind Speed, Gust, and Air Pressure
NOS Water Level Observation Network Water Level
Previous observations
TIME
(HAST)
5-day plot - Wind Direction
WDIR
 
5-day plot - Wind Speed
WSPD
kts
5-day plot - Wind Gust
GST
kts
5-day plot - Wave Height
WVHT
ft
5-day plot - Dominant Wave Period
DPD
sec
5-day plot - Average Wave Period
APD
sec
5-day plot - Mean Wave Direction
MWD
 
5-day plot - Atmospheric Pressure
PRES
in
5-day plot - Pressure Tendency
PTDY
in
5-day plot - Air Temperature
ATMP
°F
5-day plot - Water Temperature
WTMP
°F
5-day plot - Dew Point
DEWP
°F
5-day plot - Salinity
SAL
psu
5-day plot - Visibility
VIS
nmi
5-day plot - Tide (above MLLW)
TIDE
ft
2024-07-16 01:54 amNNW 8.9 11.1----30.03- 75.2 80.1----
2024-07-16 01:48 am NW 8.0 11.1----30.03- 75.4 80.1----
2024-07-16 01:42 am NW 8.9 9.9----30.03- 75.2 80.1----
2024-07-16 01:36 amNNW 8.9 9.9----30.04- 75.0 80.2----
2024-07-16 01:24 am NW 8.9 11.1----30.04- 75.0 80.2----
2024-07-16 01:18 am NW 11.1 13.0----30.04- 75.2 79.9----
2024-07-16 01:12 amNNW 11.1 13.0----30.04- 75.6 79.9----
2024-07-16 01:06 am N 8.9 9.9----30.05- 76.1 80.1----
2024-07-16 01:00 am N 6.0 8.9----30.05-0.03 75.9 80.1----
2024-07-16 12:54 am NW 7.0 8.0----30.05- 75.6 79.9----
2024-07-16 12:48 am NW 7.0 9.9----30.05- 75.7 79.9----
2024-07-16 12:42 am NW 7.0 9.9----30.05- 75.4 79.9----
2024-07-16 12:36 am NW 8.0 8.0----30.05- 75.4 79.9----
2024-07-16 12:30 am NW 8.0 9.9----30.05- 75.4 79.9----
2024-07-16 12:24 am NW 8.0 8.9----30.05- 75.6 79.7----
2024-07-16 12:18 am NW 8.0 11.1----30.05- 75.6 79.9----
2024-07-16 12:12 am NW 8.0 9.9----30.05- 75.7 79.9----
2024-07-16 12:06 amWNW 9.9 11.1----30.06- 75.0 79.7----
2024-07-16 12:00 am NW 8.9 9.9----30.06-0.01 75.4 79.7----
2024-07-15 11:54 pm NW 9.9 12.0----30.06- 75.2 79.7----
2024-07-15 11:48 pm NW 9.9 12.0----30.06-- 79.7----
2024-07-15 11:30 pmNNW 9.9 13.0----30.06- 77.7 79.9----
2024-07-15 11:00 pm NE 12.0 15.9----30.08+0.02 76.8 80.2----
2024-07-15 10:42 pmENE 8.0 11.1----30.08- 76.8 80.4----
2024-07-15 10:36 pmENE 8.0 9.9----30.08- 76.5 80.2----
2024-07-15 10:30 pmENE 8.0 11.1----30.08- 76.1 79.9----
2024-07-15 10:24 pmNNE 11.1 13.0----30.08- 76.5 79.9----
2024-07-15 10:18 pmNNW 7.0 8.0----30.08- 76.6 80.2----
2024-07-15 10:12 pm NW 7.0 9.9----30.07- 76.5 80.2----
2024-07-15 10:06 pmWNW 7.0 9.9----30.07- 76.1 80.4----
2024-07-15 10:00 pm NW 8.0 9.9----30.07+0.03 76.8 80.6----
2024-07-15 09:54 pm NW 8.9 11.1----30.07- 77.0 80.4----
2024-07-15 09:48 pm NW 8.9 9.9----30.07-- 80.2----
2024-07-15 09:42 pm NW 8.0 9.9----30.07-- 80.4----
2024-07-15 09:36 pm NW 8.9 9.9----30.07-- 81.1----
2024-07-15 09:30 pm NW 8.9 9.9----30.07- 75.9 80.4----
2024-07-15 09:24 pm NW 8.0 9.9----30.07- 75.7 80.6----
2024-07-15 09:18 pm NW 8.0 9.9----30.07- 75.7 80.8----
2024-07-15 09:12 pm NW 8.9 11.1----30.07- 75.6 80.4----
2024-07-15 09:06 pm NW 8.9 8.9----30.07- 75.7 80.1----
2024-07-15 09:00 pmWNW 8.0 9.9----30.07+0.04 75.4 79.9----
2024-07-15 08:54 pmWNW 8.9 11.1----30.07- 75.4 80.1----
2024-07-15 08:48 pmWNW 9.9 11.1----30.06- 75.6 79.9----
2024-07-15 08:42 pmNNW 6.0 11.1----30.06- 75.9 80.1----
2024-07-15 08:36 pm N 8.9 11.1----30.06- 77.2 80.1----
2024-07-15 08:30 pm N 4.1 8.9----30.06- 77.5 79.9----
2024-07-15 08:24 pmNNE 5.1 9.9----30.06- 77.7 79.7----
2024-07-15 08:18 pm NE 4.1 7.0----30.06- 77.7 79.7----
2024-07-15 08:12 pmNNE 2.9 8.9----30.06- 77.7 79.5----
2024-07-15 08:06 pmNNE 4.1 8.9----30.06- 77.4 79.3----
2024-07-15 08:00 pm NE 7.0 12.0----30.06+0.04 77.2 79.2----
2024-07-15 07:54 pm NE 4.1 12.0----30.06- 77.2 79.3----
2024-07-15 07:48 pm N 2.9 7.0----30.05-- 79.2----
2024-07-15 07:42 pmNNE 2.9 6.0----30.05-- 79.2----
2024-07-15 07:36 pm N 4.1 7.0----30.05-- 79.2----
2024-07-15 07:30 pmNNE 2.9 7.0----30.04- 77.7 79.3----
2024-07-15 07:24 pm N 1.9 6.0----30.04- 77.9 79.2----
2024-07-15 07:18 pmNNE 2.9 7.0----30.04- 78.1 79.2----
2024-07-15 07:12 pm NE 5.1 7.0----30.05- 78.3 79.2----
2024-07-15 07:06 pmNNE 4.1 8.0----30.04- 78.3 79.2----
2024-07-15 07:00 pmNNE 5.1 8.9----30.04+0.03 78.3 79.2----
2024-07-15 06:54 pmNNE 6.0 11.1----30.04- 78.3 79.2----
2024-07-15 06:48 pmNNE 7.0 12.0----30.04- 77.9 79.2----
2024-07-15 06:42 pmNNE 8.0 12.0----30.04- 77.9 79.0----
2024-07-15 06:36 pmNNE 7.0 9.9----30.03- 77.9 79.2----
2024-07-15 06:30 pm NE 4.1 9.9----30.03- 78.1 79.0----
2024-07-15 06:24 pm NE 6.0 12.0----30.03- 77.9 79.0----
2024-07-15 06:18 pm NE 6.0 12.0----30.03- 77.9 79.0----
2024-07-15 06:12 pm NE 5.1 9.9----30.03- 77.9 79.0----
2024-07-15 06:06 pm NE 6.0 11.1----30.03- 77.9 79.0----
2024-07-15 06:00 pm NE 5.1 8.9----30.03+0.00 78.6 79.0----
2024-07-15 05:54 pmENE 4.1 8.9----30.03- 78.8 79.0----
2024-07-15 05:48 pm NE 5.1 7.0----30.03-- 79.0----
2024-07-15 05:42 pmNNE 5.1 8.9----30.02-- 79.0----
2024-07-15 05:36 pmNNE 5.1 8.9----30.02-- 79.0----
2024-07-15 05:30 pmNNE 6.0 8.9----30.02- 78.4 79.0----
2024-07-15 05:24 pmNNE 5.1 9.9----30.02- 78.6 79.0----
2024-07-15 05:18 pmNNE 6.0 8.9----30.02- 78.6 79.0----
2024-07-15 05:12 pm NE 4.1 9.9----30.02- 79.2 79.0----
2024-07-15 05:06 pmENE 4.1 8.0----30.02- 79.5 79.2----
2024-07-15 05:00 pmENE 7.0 9.9----30.01-0.02 79.2 79.0----
2024-07-15 04:54 pmENE 5.1 8.9----30.01- 79.2 79.0----
2024-07-15 04:48 pm NE 5.1 9.9----30.01- 79.0 79.0----
2024-07-15 04:42 pm NE 5.1 8.9----30.01- 79.3 79.2----
2024-07-15 04:36 pm NE 5.1 8.0----30.01- 79.2 79.0----
2024-07-15 04:30 pmENE 5.1 12.0----30.01- 79.5 79.0----
2024-07-15 04:24 pmENE 7.0 12.0----30.01- 79.0 79.2----
2024-07-15 04:18 pmENE 8.0 13.0----30.01- 79.2 79.2----
2024-07-15 04:12 pmENE 8.9 12.0----30.01- 78.8 79.2----
2024-07-15 04:06 pmENE 8.0 12.0----30.01- 78.6 79.2----
2024-07-15 04:00 pm NE 5.1 8.9----30.01-0.04 79.0 79.2----
2024-07-15 03:54 pm NE 6.0 11.1----30.01- 78.6 79.0----
2024-07-15 03:48 pmENE 7.0 11.1----30.01- 79.5 79.0----
2024-07-15 03:42 pmENE 7.0 11.1----30.01- 79.3 79.0----
2024-07-15 03:36 pmENE 6.0 11.1----30.01- 79.5 79.0----
2024-07-15 03:30 pmENE 8.0 11.1----30.01- 79.0 79.0----
2024-07-15 03:24 pmENE 7.0 9.9----30.02- 79.0 79.0----
2024-07-15 03:18 pmENE 6.0 9.9----30.02- 79.5 79.0----
2024-07-15 03:12 pm NE 5.1 8.9----30.02- 79.0 79.0----
2024-07-15 03:06 pm NE 6.0 8.9----30.02- 79.0 79.0----
2024-07-15 03:00 pm NE 5.1 11.1----30.02-0.04 78.8 79.0----
2024-07-15 02:54 pm NE 5.1 11.1----30.02- 79.2 79.0----
2024-07-15 02:48 pmENE 5.1 8.9----30.03- 79.3 79.0----
2024-07-15 02:42 pm NE 6.0 8.0----30.03- 79.0 79.0----
2024-07-15 02:36 pmENE 6.0 8.9----30.03- 79.2 79.0----
2024-07-15 02:30 pmENE 7.0 8.9----30.03- 78.8 79.0----
2024-07-15 02:24 pmENE 7.0 9.9----30.03- 78.8 79.0----
2024-07-15 02:18 pm NE 7.0 8.9----30.03- 78.6 79.0----
2024-07-15 02:12 pm NE 6.0 8.9----30.03- 78.6 79.0----
2024-07-15 02:06 pmENE 6.0 11.1----30.03- 78.8 79.0----
2024-07-15 02:00 pmENE 6.0 9.9----30.03-0.04- 79.0----
2024-07-15 01:54 pm NE 7.0 9.9----30.03-- 79.0----
2024-07-15 01:48 pm NE 7.0 9.9----30.04-------
2024-07-15 01:42 pmENE 6.0 9.9----30.04-------
2024-07-15 01:36 pmENE 6.0 9.9----30.04-------
2024-07-15 01:30 pmENE 8.0 12.0----30.04-------
2024-07-15 01:24 pm NE 8.9 11.1----30.04-------
2024-07-15 01:18 pmENE 8.0 11.1----30.04- 78.4 79.0----
2024-07-15 01:12 pmENE 8.0 9.9----30.05- 79.2 79.0----
2024-07-15 01:06 pmENE 7.0 8.9----30.05- 79.0 79.0----
2024-07-15 01:00 pmENE 8.0 11.1----30.05-0.04 79.0 79.0----
2024-07-15 12:54 pmENE 7.0 11.1----30.05- 79.2 79.0----
2024-07-15 12:48 pmENE 6.0 9.9----30.05-- 79.0----
2024-07-15 12:42 pmENE 8.0 12.0----30.06-- 79.0----
2024-07-15 12:36 pmENE 7.0 11.1----30.06-- 79.0----
2024-07-15 12:30 pmENE 7.0 11.1----30.06- 79.0-----
2024-07-15 12:24 pm NE 5.1 8.9----30.06- 79.0-----
2024-07-15 12:18 pm-------30.06- 79.0 79.0----
2024-07-15 12:12 pm-------30.06- 79.0 79.0----
2024-07-15 12:06 pm-------30.06- 79.0 79.2----
2024-07-15 12:00 pmENE 5.1 7.0----30.07-0.02 79.0 79.2----
2024-07-15 11:54 amENE 5.1 8.0----30.07- 79.0 79.2----
2024-07-15 11:48 amENE 5.1 8.0------ 78.6 79.2----
2024-07-15 11:42 amENE 6.0 8.0------ 78.4 79.2----
2024-07-15 11:36 amENE 5.1 8.0------ 78.6 79.2----
2024-07-15 11:30 amENE 5.1 8.0----30.07- 78.4 79.2----
2024-07-15 11:24 amENE 5.1 7.0----30.07- 78.4 79.2----
2024-07-15 11:18 amENE 5.1 7.0----30.07- 78.3 79.2----
2024-07-15 11:12 am NE 5.1 8.0----30.07- 78.3 79.2----
2024-07-15 11:06 am NE 6.0 8.9----30.08- 78.1 79.2----
2024-07-15 11:00 am NE 5.1 7.0----30.08-0.01- 79.3----
2024-07-15 10:54 am NE 7.0 8.9----30.08-- 79.3----
2024-07-15 10:48 amENE 5.1 8.0----30.08- 77.9 79.3----
2024-07-15 10:42 amENE 6.0 9.9----30.08- 77.9 79.3----
2024-07-15 10:36 am NE 6.0 8.9----30.08- 77.7 79.3----
2024-07-15 10:30 amENE 6.0 8.9----30.08- 77.5 79.5----
2024-07-15 10:24 amNNE 2.9 6.0----30.08- 77.2 79.5----
2024-07-15 10:18 amNNW 4.1 5.1----30.08- 76.5 79.5----
2024-07-15 10:12 amNNW 5.1 7.0----30.09- 76.1 79.5----
2024-07-15 10:06 am NW 6.0 7.0----30.09- 76.3 79.5----
2024-07-15 10:00 am NW 5.1 7.0----30.09+0.01 76.5 79.5----
2024-07-15 09:54 am NW 5.1 6.0----30.09- 76.3 79.5----
2024-07-15 09:48 am NW 5.1 6.0----30.09-- 79.5----
2024-07-15 09:42 amNNW 5.1 6.0----30.09-- 79.5----
2024-07-15 09:36 amWNW 4.1 5.1----30.09-- 79.5----
2024-07-15 09:30 am NW 2.9 4.1----30.09- 75.4 79.5----
2024-07-15 09:24 am N 1.9 5.1----30.09- 75.4 79.5----
2024-07-15 09:18 amNNW 1.9 8.0----30.09- 75.2 79.5----
2024-07-15 09:12 amNNW 5.1 7.0----30.09- 75.6 79.5----
2024-07-15 09:06 am NW 6.0 7.0----30.09- 75.4 79.5----
2024-07-15 09:00 amWNW 4.1 5.1----30.09+0.03 75.2 79.5----
2024-07-15 08:54 am NW 1.9 5.1----30.09- 75.0 79.5----
2024-07-15 08:48 amNNW 6.0 8.9----30.09- 74.8 79.5----
2024-07-15 08:42 am NW 6.0 8.9----30.09- 74.8 79.5----
2024-07-15 08:36 am N 6.0 7.0----30.09- 74.5 79.5----
2024-07-15 08:30 amNNW 6.0 8.0----30.09- 74.3 79.5----
2024-07-15 08:24 amNNW 7.0 8.0----30.09- 74.1 79.5----
2024-07-15 08:18 amNNW 6.0 7.0----30.09- 73.9 79.5----
2024-07-15 08:12 am NW 6.0 8.0----30.09- 73.8 79.5----
2024-07-15 08:06 amWNW 7.0 8.0----30.09- 73.6 79.5----
2024-07-15 08:00 amWNW 6.0 8.0----30.09+0.04 73.4 79.5----
2024-07-15 07:54 amWNW 7.0 8.0----30.08- 73.0 79.5----
2024-07-15 07:48 amWNW 6.0 8.9----30.08- 73.2 79.5----
2024-07-15 07:42 amWNW 8.0 9.9----30.08- 73.2 79.5----
2024-07-15 07:36 amWNW 8.0 9.9----30.08- 73.2 79.3----
2024-07-15 07:30 am NW 7.0 9.9----30.08- 73.6 79.5----
2024-07-15 07:24 amNNW 7.0 11.1----30.08- 73.2 79.5----
2024-07-15 07:18 amNNW 8.9 11.1----30.08- 73.2 79.5----
2024-07-15 07:12 am N 8.9 9.9----30.08- 73.6 79.5----
2024-07-15 07:06 am N 8.0 8.9----30.07- 73.8 79.5----
2024-07-15 07:00 amNNW 7.0 8.9----30.07+0.03 74.1 79.3----
2024-07-15 06:54 am N 5.1 8.9----30.07- 73.6 79.3----
2024-07-15 06:48 amNNW 7.0 8.9----30.06- 73.2 79.3----
2024-07-15 06:42 am NW 6.0 8.0----30.06- 72.3 79.2----
2024-07-15 06:36 amWNW 2.9 5.1----30.06- 71.4 79.3----
2024-07-15 06:30 am W 1.9 5.1----30.06- 71.2 79.5----
2024-07-15 06:24 am W 4.1 6.0----30.06- 71.2 79.5----
2024-07-15 06:18 am W 5.1 7.0----30.06- 71.1 79.7----
2024-07-15 06:12 am W 4.1 6.0----30.06- 70.9 79.7----
2024-07-15 06:06 am W 5.1 8.0----30.06- 70.9 80.1----
2024-07-15 06:00 am W 6.0 7.0----30.06+0.00 70.9 79.9----
2024-07-15 05:54 am W 4.1 8.0----30.06- 70.9 79.9----
2024-07-15 05:48 am W 6.0 8.0----30.05- 70.9 80.1----
2024-07-15 05:42 am W 7.0 8.9----30.05- 70.7 81.3----
2024-07-15 05:36 amWNW 7.0 8.9----30.05- 70.7 81.1----
2024-07-15 05:30 am NW 6.0 8.0----30.05- 70.9 79.9----
2024-07-15 05:24 amWNW 6.0 8.0----30.05- 70.9 79.9----
2024-07-15 05:18 amWNW 7.0 8.9----30.05- 70.9 79.9----
2024-07-15 05:12 amWNW 8.0 8.9----30.05- 70.9 79.9----
2024-07-15 05:06 amWNW 7.0 8.9----30.05- 71.2 79.9----
2024-07-15 05:00 am NW 6.0 8.0----30.05+0.00 71.2 79.9----
2024-07-15 04:54 am NW 7.0 8.9----30.05- 71.2 80.1----
2024-07-15 04:48 am N 7.0 8.0----30.05- 71.4 80.1----
2024-07-15 04:42 amNNE 5.1 7.0----30.05- 71.1 80.2----
2024-07-15 04:36 am N 7.0 8.9----30.05- 71.1 80.2----
2024-07-15 04:30 am N 7.0 8.9----30.04- 71.2 80.2----
2024-07-15 04:24 am N 7.0 9.9----30.04- 71.4 80.2----
2024-07-15 04:18 am N 7.0 8.9----30.04- 71.6 80.2----
2024-07-15 04:12 amNNW 8.0 8.9----30.04- 70.9 80.2----
2024-07-15 04:06 amNNW 7.0 8.9----30.04- 71.2 80.2----
2024-07-15 04:00 am N 7.0 8.0----30.04-0.02 71.4 80.4----
2024-07-15 03:54 am N 7.0 8.0----30.04- 71.4 80.4----
2024-07-15 03:48 am N 5.1 6.0----30.04- 72.1 80.4----
2024-07-15 03:42 am NW 4.1 5.1----30.04- 71.4 80.4----
2024-07-15 03:36 am NW 5.1 6.0----30.04- 71.8 80.4----
2024-07-15 03:30 amNNW 5.1 6.0----30.04- 71.6 80.4----
2024-07-15 03:24 am N 4.1 5.1----30.04- 71.2 80.6----
2024-07-15 03:18 amNNE 2.9 6.0----30.04- 71.2 80.8----
2024-07-15 03:12 amENE 2.9 5.1----30.05- 71.8 80.8----
2024-07-15 03:06 amENE 1.9 5.1----30.05- 72.0 80.8----
2024-07-15 03:00 amENE 4.1 5.1----30.05-0.03 72.0 81.0----
2024-07-15 02:54 am E 6.0 7.0----30.05- 72.1 80.6----
2024-07-15 02:48 am E 4.1 7.0----30.05- 72.9 80.6----
2024-07-15 02:42 am E 2.9 9.9----30.05- 73.0 80.4----
2024-07-15 02:36 am E 6.0 9.9----30.05- 73.8 80.4----
2024-07-15 02:30 amENE 5.1 6.0----30.05- 74.7 80.4----
2024-07-15 02:24 am E 2.9 7.0----30.05- 74.8 80.1----
2024-07-15 02:18 amENE 6.0 8.9----30.05- 74.8 80.4----
2024-07-15 02:12 amENE 8.0 11.1----30.05- 74.5 80.2----
2024-07-15 02:06 am N 6.0 7.0----30.05- 76.3 80.4----
2024-07-15 02:00 amNNW 6.0 8.0----30.05-0.04 76.1 80.2----
2024-07-15 01:54 amNNW 5.1 6.0----30.05- 75.9 80.2----